Vorticity
nan nan nan nan nan nan nan nan nan nan nan nan nan nan nan nan nan nan nan nan nan nan nan nan nan nan nan nan nan nan nan nan nan nan nan nan nan nan nan nan nan nan nan nan nan nan nan nan nan nan nan nan nan nan nan nan nan nan nan nan nan nan nan nan nan nan nan nan nan nan nan nan nan nan nan nan nan nan nan nan nan nan nan nan nan nan nan nan nan nan nan nan nan nan nan nan nan nan nan nan nan nan nan
nan 4 3 3 3 3 4 5 5 5 5 5 5 5 5 5 6 6 6 5 5 5 5 5 5 5 5 5 5 5 6 6 6 6 5 4 4 4 4 4 4 5 5 6 7 8 14 21 22 22 17 11 7 6 6 7 7 7 7 6 6 7 7 9 7 4 6 7 9 10 11 11 11 10 9 9 10 9 9 10 11 11 11 11 11 11 11 10 10 9 8 7 7 6 7 9 9 8 6 5 5 7 nan
nan 4 3 3 3 3 4 4 4 5 5 5 6 6 6 6 6 5 5 5 5 5 5 5 5 5 5 5 5 5 6 6 6 5 5 4 3 3 3 4 4 5 6 7 8 9 12 20 23 20 10 6 5 6 7 7 7 6 5 6 5 6 7 7 6 6 7 9 10 11 9 9 8 7 7 7 8 9 9 11 10 8 7 9 11 12 13 12 12 11 9 7 6 4 6 8 9 8 7 5 7 9 nan
nan 4 4 3 3 3 4 4 4 5 5 6 6 6 6 6 5 5 5 5 5 5 5 5 5 5 5 5 5 5 5 5 5 5 4 4 3 3 4 4 5 6 7 8 9 12 13 15 15 12 6 4 5 6 7 7 6 6 5 6 6 6 8 7 8 8 8 9 10 10 8 9 7 6 5 5 6 9 10 9 8 9 8 8 8 10 11 10 9 9 10 10 9 7 7 8 8 8 8 7 9 11 nan
nan 4 4 4 3 3 4 4 4 5 6 6 6 6 5 5 5 5 5 5 5 5 5 5 5 4 4 5 5 5 5 4 4 4 4 4 4 4 4 5 5 6 7 8 9 14 14 10 9 7 5 4 5 5 6 6 6 6 6 6 6 7 10 9 9 9 8 9 9 9 9 10 8 7 7 7 8 9 10 7 7 7 8 7 6 7 6 6 7 7 9 9 9 9 9 9 8 8 9 10 11 10 nan
nan 4 4 4 4 4 4 4 4 5 5 5 6 5 5 5 5 5 5 5 5 5 5 5 5 4 4 4 4 4 4 4 4 4 4 4 4 4 5 5 5 6 6 7 9 12 15 11 9 7 6 6 6 6 5 6 6 6 7 6 7 8 8 9 9 8 8 8 8 9 9 10 10 9 9 9 10 13 11 6 7 8 8 7 6 5 4 4 5 5 7 7 6 7 7 8 7 7 8 10 10 9 nan
nan 4 4 4 5 5 5 5 5 5 5 5 5 5 5 5 5 5 5 5 6 5 5 5 5 4 4 4 4 4 4 4 4 4 4 4 4 4 5 5 5 6 6 7 8 12 15 12 10 8 7 6 6 6 6 6 6 7 7 5 5 7 8 8 8 7 7 8 8 8 8 9 9 8 8 7 8 10 11 10 10 11 11 9 8 6 4 5 5 6 6 7 7 7 6 6 6 6 7 8 9 8 nan
nan 3 4 5 6 7 7 6 6 6 6 5 5 5 5 5 5 5 5 5 5 5 5 4 4 4 4 4 5 5 5 5 5 4 4 4 4 4 5 5 5 6 7 8 10 13 15 12 9 7 6 6 6 6 7 6 6 7 6 5 4 5 7 8 7 7 7 8 8 8 8 7 7 7 7 7 7 8 8 9 10 10 10 10 10 10 9 9 8 8 8 8 9 8 8 7 7 6 7 8 9 9 nan
nan 3 4 5 6 8 8 7 7 6 6 6 5 5 5 4 4 5 5 5 5 4 4 4 5 5 5 5 5 5 5 5 5 4 4 4 4 4 4 5 6 7 8 11 14 15 15 10 7 5 5 5 6 6 8 7 6 7 6 6 6 6 7 8 8 7 7 8 8 8 8 7 6 7 7 7 7 7 7 8 8 10 11 11 11 12 12 12 12 13 13 12 11 10 10 9 8 7 7 8 9 10 nan
nan 3 4 4 5 7 7 7 6 6 6 6 5 4 4 4 4 5 5 5 5 5 5 5 5 5 6 5 5 5 5 4 4 4 4 4 4 4 5 5 6 8 11 16 18 17 13 9 6 5 5 5 5 5 6 7 7 7 6 6 6 8 9 9 8 8 9 9 9 9 8 7 7 7 7 7 7 7 8 9 9 10 10 11 11 12 13 13 14 14 15 14 13 11 10 9 9 9 9 9 9 10 nan
nan 3 4 4 4 5 5 6 5 5 5 4 4 4 4 4 4 5 5 5 5 5 5 6 6 6 6 6 5 5 4 4 4 4 3 4 4 4 5 6 8 11 16 19 19 15 9 7 6 6 6 5 5 5 5 7 7 8 5 5 6 8 9 9 9 10 10 10 10 9 8 7 7 7 8 8 8 8 8 10 11 10 10 10 11 10 11 12 12 12 12 11 10 9 9 9 9 9 9 10 10 9 nan
nan 4 3 2 3 4 4 5 4 4 4 3 3 3 4 5 5 5 4 5 5 5 6 6 6 6 6 6 5 5 4 4 3 3 3 4 4 5 6 8 11 15 18 19 15 9 2 3 5 6 7 6 5 6 6 7 7 8 5 3 7 8 9 10 10 10 11 10 10 9 8 7 7 7 7 8 8 8 9 10 10 10 10 10 9 8 8 8 8 8 7 7 7 7 7 8 8 9 9 9 9 9 nan
nan 3 1 1 3 4 4 4 4 4 3 2 2 4 5 6 6 5 4 5 5 6 6 7 7 6 6 5 5 4 4 4 4 4 4 4 4 5 7 10 13 16 17 13 6 1 -1 3 5 7 8 7 6 7 8 8 7 7 6 4 8 9 10 11 11 11 10 9 9 8 8 7 8 8 8 8 8 9 9 9 9 8 8 8 8 7 6 6 6 6 5 5 5 5 6 6 7 8 8 8 8 8 nan
nan 0 1 4 5 4 4 4 4 4 3 2 3 4 6 7 7 5 4 5 6 6 6 6 6 6 5 4 4 4 4 4 5 5 5 5 6 7 9 12 14 13 12 6 2 0 3 5 6 6 7 7 6 5 8 8 8 6 8 7 8 10 11 12 12 11 10 8 8 7 7 8 8 8 9 9 9 9 9 8 7 7 6 6 6 6 6 6 5 5 5 5 5 5 5 6 6 6 7 7 7 7 nan
nan 1 4 7 6 5 4 4 4 4 3 3 3 4 6 7 6 5 4 5 6 6 6 6 6 5 5 4 4 4 4 5 6 6 6 7 8 9 12 13 12 10 7 4 3 5 7 7 7 6 6 7 6 5 7 8 8 6 8 9 9 10 11 12 12 11 9 8 7 7 7 8 9 9 10 11 11 11 10 9 8 7 6 6 6 6 6 6 6 6 6 6 6 5 6 6 6 6 6 6 6 7 nan
nan 4 5 7 6 6 6 5 5 5 4 3 4 5 6 6 6 5 5 5 6 6 6 6 5 5 4 4 4 3 3 5 5 5 6 8 10 12 13 12 10 7 3 5 6 7 7 7 7 6 6 7 7 7 7 7 8 7 7 10 10 10 11 11 11 10 9 8 7 7 7 8 8 9 10 11 12 12 12 10 9 8 7 7 6 6 6 6 7 7 7 7 7 6 6 6 5 5 6 6 6 6 nan
nan 6 6 5 6 6 7 6 6 5 5 4 4 5 5 5 5 5 5 6 6 7 6 6 6 5 4 4 4 4 4 4 3 3 4 8 10 11 11 9 6 4 3 6 7 6 6 6 6 5 5 6 7 7 8 8 7 8 7 10 10 10 10 10 10 10 9 8 8 7 8 8 8 8 8 10 11 12 11 11 10 9 8 7 7 7 6 6 6 6 7 8 7 7 6 5 5 5 5 5 5 5 nan
nan 6 5 4 5 6 7 7 6 6 5 5 5 5 5 5 5 5 5 6 7 7 7 7 6 5 4 3 3 6 6 5 5 3 2 4 7 8 8 5 3 4 7 7 7 7 6 6 6 5 5 5 7 7 8 9 7 8 8 10 10 9 9 9 9 9 9 8 8 8 8 7 7 6 6 7 8 8 9 9 9 8 8 7 7 7 6 5 5 5 5 6 6 6 6 5 5 5 5 5 5 5 nan
nan 6 5 5 5 6 7 7 7 6 6 6 6 6 5 5 5 5 6 7 8 8 8 7 6 5 4 3 4 5 7 7 7 6 5 3 4 5 4 3 4 6 8 8 7 7 6 7 6 6 5 5 6 7 7 8 7 8 9 9 10 9 8 8 8 8 8 8 8 7 7 7 6 6 5 4 5 5 6 6 6 6 6 6 6 6 6 5 5 4 4 4 4 5 5 5 5 5 5 5 5 4 nan
nan 8 7 6 6 6 6 7 7 7 7 6 7 8 7 5 5 6 8 9 9 8 8 6 4 4 3 3 4 6 7 8 8 8 8 6 6 5 5 5 6 8 8 8 7 6 5 6 6 6 6 5 5 7 7 7 6 7 9 9 9 9 9 8 8 8 8 7 7 6 6 6 6 5 5 4 3 3 4 5 5 4 4 4 5 5 5 5 5 4 4 3 4 4 4 5 5 5 5 5 5 5 nan
nan 8 10 10 10 8 7 8 9 9 8 7 6 7 8 8 8 8 11 10 8 7 6 4 3 3 4 5 6 7 8 8 8 8 8 8 8 8 7 8 8 8 8 7 6 6 6 6 6 6 6 6 6 6 7 9 7 7 9 9 9 9 8 8 7 7 7 7 6 6 5 5 5 5 5 4 3 3 3 4 4 4 4 4 3 4 5 5 5 5 4 4 4 4 5 4 5 5 5 5 5 5 nan
nan 7 9 10 10 9 8 8 10 10 11 9 5 5 6 8 8 9 9 9 7 5 4 3 4 6 6 7 7 7 7 7 7 7 7 8 8 8 8 9 9 8 8 8 7 6 6 6 6 6 6 6 6 6 6 8 8 7 8 8 9 9 8 8 7 7 7 7 6 6 5 5 5 5 5 4 4 4 3 3 4 4 4 4 3 4 4 4 4 4 4 4 5 5 5 5 5 5 5 5 5 5 nan
nan 6 7 7 8 8 8 8 9 9 10 10 6 4 5 6 7 6 5 6 6 5 5 6 7 8 8 8 7 7 7 7 8 7 7 7 8 8 9 9 9 9 9 8 8 7 7 7 7 6 6 6 7 7 6 5 7 7 7 8 8 9 9 8 7 6 6 6 6 6 5 5 5 4 4 4 4 4 3 3 3 4 4 4 4 4 4 4 4 4 4 5 5 5 5 5 5 5 5 5 6 6 nan
nan 6 6 7 7 7 7 7 7 7 8 8 7 5 5 5 6 6 6 6 6 6 7 8 8 8 8 9 8 7 8 8 9 9 7 7 8 8 9 10 10 9 9 8 8 7 7 7 6 6 6 6 7 6 6 4 6 7 7 8 8 9 9 8 7 6 6 5 5 5 5 5 5 4 4 4 4 4 4 3 3 4 4 4 4 4 4 4 4 4 4 5 5 5 6 6 6 6 6 6 6 6 nan
nan 6 6 7 7 7 7 7 7 6 7 7 7 7 6 5 6 7 7 7 8 8 8 8 7 7 8 9 9 9 8 8 8 8 8 8 7 8 8 9 10 10 10 8 8 7 7 6 6 6 6 6 7 7 6 5 5 6 6 7 8 8 9 8 7 6 5 5 5 5 5 5 5 5 5 5 5 5 4 4 4 4 5 5 5 5 5 5 5 5 5 5 6 6 6 6 6 6 6 6 6 6 nan
nan 6 6 7 7 7 8 7 7 7 6 6 7 8 7 5 6 7 8 8 9 9 9 8 8 8 8 8 8 8 8 7 6 6 8 8 7 6 7 8 9 10 10 9 8 7 6 6 6 6 6 6 7 6 5 6 6 6 6 7 8 8 9 9 8 7 6 5 5 5 5 5 5 5 6 6 6 5 5 5 5 5 6 6 5 5 6 6 6 6 6 6 6 6 7 7 7 7 7 7 7 7 nan
nan 6 7 7 7 8 7 7 7 7 6 6 7 8 7 6 6 7 8 9 9 9 8 7 8 8 8 7 6 7 7 6 5 5 7 7 7 6 6 6 8 9 9 9 8 7 6 6 6 6 6 6 7 7 5 4 5 6 6 7 8 8 9 9 9 9 8 7 6 6 6 6 6 6 6 7 7 6 7 6 6 6 6 7 6 6 7 7 7 7 7 7 7 7 7 7 7 7 7 7 7 7 nan
nan 6 7 7 7 7 7 7 8 7 7 6 6 8 8 7 7 8 8 9 8 8 7 6 7 7 7 5 5 5 6 6 6 6 6 7 7 7 6 6 7 8 8 9 8 7 6 6 6 6 7 7 8 8 7 2 3 6 7 7 8 8 9 9 9 10 9 8 7 7 7 7 7 7 7 7 8 8 7 7 7 7 7 7 7 7 7 8 8 8 7 7 8 8 8 8 8 8 8 8 7 7 nan
nan 7 7 7 7 7 8 8 8 8 7 7 6 7 8 8 7 8 8 8 8 7 6 6 6 6 7 6 5 5 6 6 6 6 7 8 7 8 7 6 6 7 8 9 8 7 6 6 7 7 7 7 7 7 8 2 2 5 7 7 8 8 9 9 9 10 9 9 8 7 7 7 7 7 8 8 8 8 8 7 7 7 8 8 8 8 8 8 8 8 8 8 8 8 8 8 8 8 8 8 8 8 nan
nan 7 7 8 8 7 8 9 9 8 8 8 7 7 7 8 9 8 7 7 7 7 7 7 6 7 7 7 6 6 6 7 6 5 6 7 8 8 8 7 6 7 8 8 8 7 6 6 6 6 6 6 7 7 7 5 4 4 7 7 7 7 8 8 8 9 9 8 8 7 7 7 7 7 8 8 8 8 8 8 8 8 8 8 8 8 8 8 8 8 8 8 8 8 8 8 8 8 8 8 8 8 nan
nan 7 7 8 8 8 9 9 9 9 9 8 8 7 8 9 9 9 8 7 6 6 6 6 6 7 7 7 7 6 7 7 7 6 5 6 7 8 8 8 7 7 8 8 8 8 8 7 6 6 6 6 7 7 7 6 4 2 4 5 6 6 6 6 6 7 7 7 6 6 6 7 7 7 8 8 8 8 8 8 8 8 8 8 8 8 8 8 8 8 8 8 7 8 8 8 8 8 8 8 8 8 nan
nan 7 8 8 8 8 9 9 9 9 8 8 8 8 9 9 9 9 8 8 7 7 6 6 6 6 7 7 7 7 8 8 8 7 6 6 6 6 7 8 8 8 7 9 9 9 9 9 8 7 6 7 7 6 7 7 4 1 -0 3 4 5 5 5 5 5 5 5 5 5 6 6 7 7 8 8 8 8 8 8 8 8 8 8 8 8 8 8 8 8 8 8 7 8 8 8 8 8 8 8 8 8 nan
nan 8 8 9 8 8 8 9 8 8 8 9 9 9 9 9 10 9 9 9 9 9 9 8 8 7 7 7 7 7 9 9 8 7 7 7 6 6 7 8 8 8 8 9 9 10 10 10 9 7 6 6 6 6 7 7 6 4 -0 0 2 3 4 3 3 4 4 4 4 5 5 6 7 7 8 8 8 9 8 8 8 8 8 8 8 8 8 8 8 8 8 8 8 8 8 8 8 8 8 8 8 8 nan
nan 8 9 9 9 8 8 8 7 7 8 9 10 9 9 9 10 10 9 8 8 9 10 10 8 8 7 7 6 7 8 8 8 8 7 7 7 6 7 8 8 8 9 10 9 9 10 10 8 6 6 6 6 6 7 7 7 6 3 2 1 2 3 3 3 3 3 4 4 4 5 5 6 7 8 8 8 9 9 9 8 8 8 8 8 8 8 8 8 8 7 7 8 8 8 8 8 8 8 8 8 8 nan
nan 8 9 9 8 8 8 7 7 7 8 9 9 10 10 8 8 7 6 6 6 6 6 8 7 7 7 7 6 6 6 8 8 8 7 6 6 7 8 8 8 8 9 9 9 9 11 9 8 7 6 6 6 6 6 7 7 7 6 3 2 1 1 1 1 1 3 3 3 4 4 4 5 6 7 8 9 9 9 9 9 8 8 8 8 8 8 8 8 8 8 8 8 8 9 9 9 9 8 8 8 8 nan
nan 9 9 8 8 8 7 6 7 8 8 8 8 9 8 6 5 5 4 5 5 5 5 7 8 8 8 7 7 6 7 8 8 7 6 6 7 7 8 8 8 9 9 8 8 9 10 9 8 7 7 6 5 5 6 7 7 7 6 3 2 1 0 -1 -1 0 1 2 3 3 3 3 5 6 7 8 9 10 10 10 9 8 8 8 8 8 8 8 8 8 8 8 8 9 9 9 9 9 8 8 8 8 nan
nan 9 8 8 8 7 7 6 8 9 8 7 7 6 5 5 5 6 7 7 7 6 6 6 7 9 9 8 7 6 7 9 9 8 6 7 8 8 7 7 8 9 9 8 8 9 10 9 8 8 7 6 6 6 6 7 7 7 6 6 5 4 3 2 0 -0 -1 1 1 2 2 3 4 5 6 8 9 10 10 10 9 8 8 7 8 8 8 8 8 8 8 8 8 9 9 9 9 8 8 8 8 8 nan
nan 8 8 8 8 8 7 6 8 8 7 7 6 6 5 5 6 8 9 8 7 6 6 6 6 6 8 8 7 6 8 10 10 8 7 7 8 8 7 8 8 9 8 8 9 10 9 8 7 8 8 8 8 7 7 8 7 7 6 7 7 7 7 6 4 2 -0 -1 0 1 2 2 3 4 6 7 8 9 9 9 8 7 7 7 7 8 8 8 8 8 9 9 9 9 9 9 8 8 8 8 8 9 nan
nan 7 7 8 8 7 7 8 9 8 6 6 6 7 7 7 7 8 8 7 7 7 7 6 4 5 7 8 7 6 7 9 9 8 7 8 7 7 6 7 8 8 8 9 10 11 9 7 8 8 9 9 8 8 9 8 7 6 7 8 8 7 7 7 7 6 4 1 -0 0 2 3 3 4 5 7 7 8 8 7 7 6 6 7 7 8 8 9 9 9 9 9 9 9 8 8 7 7 8 8 9 9 nan
nan 8 8 8 8 7 8 9 9 7 6 7 7 7 8 8 7 7 6 6 6 7 8 7 4 4 4 6 7 6 6 7 7 8 8 7 7 7 6 7 8 8 9 9 10 10 8 8 8 9 9 8 8 9 10 9 7 7 7 7 8 7 7 8 7 7 7 5 3 1 0 3 4 4 5 6 6 7 6 6 5 5 5 6 7 8 8 9 9 9 9 9 9 9 8 7 7 7 7 8 9 9 nan
nan 8 8 8 8 8 9 9 7 6 7 7 7 7 8 8 8 7 6 5 5 6 10 10 8 5 3 5 7 7 7 7 7 7 7 7 7 7 8 8 9 8 9 9 10 9 8 7 8 8 7 6 8 10 10 8 7 7 7 7 7 8 8 8 7 6 7 7 6 3 1 3 4 4 4 5 6 6 5 5 4 4 4 5 6 7 8 8 9 9 10 10 9 9 7 6 6 6 7 8 8 8 nan
nan 8 8 8 8 9 9 8 6 6 7 7 6 7 8 8 8 7 7 6 5 5 9 11 12 9 6 6 7 7 8 7 7 6 7 7 8 8 8 9 9 9 8 9 10 9 8 7 7 7 6 7 9 10 9 8 7 7 7 7 7 8 8 7 6 7 8 8 7 6 4 2 4 5 4 5 5 5 5 4 4 4 3 4 5 6 7 8 8 9 10 10 9 9 7 6 6 6 7 8 8 8 nan
nan 8 8 8 8 9 9 8 7 6 7 6 7 7 7 7 8 8 7 6 5 4 7 10 12 11 9 7 7 7 8 7 7 7 7 7 8 8 8 9 9 9 9 9 9 9 8 8 8 8 8 9 9 9 8 7 7 7 6 7 7 8 8 7 7 8 8 8 7 7 6 4 3 4 4 4 4 4 4 3 3 3 3 3 4 4 5 6 7 8 9 10 9 9 8 7 6 7 7 8 7 7 nan
nan 9 9 9 9 10 9 7 6 6 6 7 7 8 7 7 7 7 6 6 6 5 5 8 10 12 11 8 7 7 7 7 8 8 8 8 8 8 9 9 9 9 9 9 9 9 9 8 8 8 9 10 9 8 6 7 7 7 7 7 8 8 8 9 9 9 9 8 8 7 7 6 5 4 4 4 3 3 3 3 2 2 2 2 3 3 4 5 6 7 8 9 9 9 8 7 7 7 7 8 7 6 nan
nan 8 8 9 9 10 8 6 5 6 7 7 7 8 7 7 6 6 7 8 9 8 6 6 8 11 12 11 8 8 7 7 7 8 8 8 8 9 10 10 9 9 10 9 9 9 9 9 8 8 9 9 9 8 7 7 8 7 8 8 8 9 9 9 9 9 9 8 8 8 8 7 6 5 4 4 3 3 2 2 2 2 2 2 2 2 3 4 5 6 7 8 9 9 8 8 8 8 8 8 7 6 nan
nan 7 8 9 9 9 8 6 5 6 7 8 8 7 7 6 6 6 8 9 10 10 7 6 6 7 10 12 10 8 8 8 8 8 8 8 8 8 10 11 10 9 9 9 8 9 9 9 8 8 9 9 9 9 8 8 8 8 8 8 8 8 8 8 8 8 8 8 8 8 8 8 7 7 7 6 5 4 3 3 3 3 3 3 2 2 2 3 4 4 5 7 8 8 9 8 8 8 8 7 6 6 nan
nan 6 7 8 8 8 7 6 6 6 8 8 8 7 6 6 6 7 7 8 8 8 7 7 6 5 6 8 8 8 9 9 9 8 7 7 6 6 8 11 10 10 9 8 8 9 10 9 9 8 8 8 9 9 9 8 9 8 8 8 8 8 8 8 8 8 8 8 8 8 8 8 8 8 8 8 7 7 6 5 4 4 4 4 3 3 3 3 3 3 4 5 7 8 8 8 9 8 8 7 6 5 nan
nan 6 8 9 8 7 7 7 7 8 8 8 7 7 7 7 8 8 7 7 6 6 6 6 6 6 5 4 6 8 9 10 10 9 7 6 5 5 5 8 8 9 8 7 7 8 10 10 9 8 7 8 9 10 9 9 9 9 9 9 8 7 8 8 7 7 9 9 8 8 8 8 8 8 8 8 8 8 7 7 6 6 6 5 5 4 4 4 3 3 3 3 5 6 7 8 8 8 8 7 6 5 nan
nan 5 7 9 8 6 6 7 8 7 7 8 8 9 9 8 9 9 9 8 7 5 6 6 7 7 7 4 4 6 8 10 11 9 8 6 5 5 6 6 6 8 8 6 6 7 9 11 9 8 7 8 10 11 10 10 9 9 9 9 8 7 7 7 7 7 8 9 9 9 9 9 9 8 8 8 8 8 8 8 8 7 6 6 7 7 7 6 4 3 2 2 3 4 6 7 8 8 7 7 6 5 nan
nan 6 8 8 8 7 7 7 6 7 7 10 11 12 11 11 11 9 8 7 7 6 7 6 7 8 7 5 4 4 6 10 10 9 8 8 8 7 7 6 7 8 9 8 6 6 8 9 7 7 7 8 9 10 10 10 9 9 9 10 9 8 7 8 8 8 8 8 9 10 10 10 10 9 9 9 9 9 8 8 8 8 7 7 8 8 7 6 6 4 2 1 1 2 4 6 6 7 7 6 6 5 nan
nan 8 7 6 7 7 7 7 6 6 9 10 10 11 11 10 8 5 5 5 5 6 7 6 7 8 8 8 7 5 5 10 11 9 8 9 11 11 8 6 5 6 10 11 8 7 8 7 6 5 6 8 9 9 10 9 8 9 10 10 10 9 9 9 9 9 9 8 8 8 9 10 10 9 9 8 8 8 9 9 8 8 8 8 8 8 7 6 5 3 1 1 1 2 3 4 5 6 6 6 6 6 nan
nan 8 7 5 6 6 8 8 7 8 7 5 6 7 7 6 4 4 5 6 5 6 6 7 7 7 8 9 8 7 6 10 12 12 10 7 7 8 8 8 7 6 7 10 9 8 6 6 6 5 4 6 7 8 8 9 8 8 10 10 9 9 9 9 9 9 9 7 8 8 10 11 10 9 8 7 7 7 8 8 8 9 9 9 8 8 8 7 5 2 0 1 1 2 3 3 4 4 5 6 6 6 nan
nan 8 6 5 6 6 7 8 8 8 6 5 6 5 6 6 6 5 5 6 6 6 8 10 10 8 7 8 8 7 7 10 11 12 10 8 5 5 8 10 10 9 8 9 8 7 4 5 5 6 3 4 6 7 8 9 8 7 8 8 8 8 8 8 9 9 8 7 8 8 10 10 10 8 7 7 8 8 8 8 7 8 8 9 9 9 9 9 6 4 4 2 2 4 5 3 3 3 4 6 6 7 nan
nan 9 6 4 5 6 8 9 8 8 7 7 7 7 7 7 6 5 5 5 6 7 11 11 9 8 8 8 8 7 7 7 9 11 12 10 8 7 8 9 10 10 9 8 8 8 6 5 5 7 6 6 8 9 8 8 7 7 7 7 7 8 8 9 9 8 7 7 7 7 8 8 8 7 7 9 10 10 9 9 8 8 7 7 8 7 7 7 8 9 9 9 7 5 3 2 2 3 4 5 6 7 nan
nan 7 4 5 6 8 9 9 8 7 7 8 9 9 9 7 6 5 6 8 8 9 9 7 7 7 8 8 8 7 7 6 7 8 11 11 10 9 7 6 6 7 9 9 9 9 7 6 9 12 8 6 8 10 8 6 7 8 7 6 7 8 9 9 9 8 7 8 8 8 7 7 7 7 8 10 10 10 9 9 9 9 8 7 7 6 7 8 11 13 12 12 11 9 3 1 3 3 3 5 7 8 nan
nan 5 6 9 9 8 9 8 8 7 7 8 9 9 9 7 7 7 9 11 10 8 6 6 6 7 8 9 8 7 7 8 8 8 8 9 10 12 11 8 6 5 7 9 10 9 8 8 9 11 8 6 6 8 7 6 6 7 6 6 6 7 8 9 8 7 8 9 9 9 9 8 8 8 8 10 9 9 9 9 10 10 9 9 8 9 9 10 11 12 11 12 13 12 6 3 3 2 3 6 7 9 nan
nan 7 9 10 9 8 6 6 7 6 6 8 9 9 9 8 8 9 10 11 9 7 6 8 7 7 9 11 10 8 8 8 7 7 7 7 9 12 14 12 9 8 9 10 10 10 10 11 10 9 9 7 8 7 7 6 7 8 6 5 6 6 7 8 8 7 7 8 9 10 9 9 9 9 9 9 8 9 9 9 10 10 10 9 9 9 9 9 8 8 9 8 10 11 8 4 3 3 4 7 9 9 nan
nan 9 10 9 8 7 5 5 6 6 7 8 8 8 8 9 9 9 9 9 8 7 8 9 9 8 8 9 9 9 10 9 6 5 6 8 7 8 11 11 12 14 14 13 12 10 10 9 10 8 8 7 9 8 8 7 9 10 8 5 6 7 7 6 7 7 7 7 8 9 9 9 9 9 9 8 8 8 9 10 10 10 10 10 10 10 9 7 8 8 7 5 5 6 6 5 6 6 7 9 10 9 nan
nan 10 9 9 9 8 6 6 7 7 8 9 8 8 8 8 8 8 8 9 10 9 9 9 9 10 8 7 8 9 10 8 6 5 7 8 6 6 7 9 11 12 14 15 15 13 11 9 9 9 9 7 8 8 8 8 8 9 7 5 7 9 8 6 7 7 7 7 8 8 9 9 8 8 8 8 8 8 9 11 11 11 11 12 11 10 9 10 12 11 10 11 10 10 10 10 10 11 11 11 10 9 nan
nan 9 9 8 8 7 7 7 7 7 9 9 8 8 8 7 7 8 9 10 11 12 10 9 9 10 9 8 8 9 9 7 6 7 9 9 6 5 6 9 8 8 9 11 13 14 14 13 11 10 9 9 8 7 6 7 8 9 6 4 7 10 10 8 7 7 6 6 8 8 8 8 7 7 7 7 8 8 9 10 11 11 12 12 12 11 12 15 15 14 14 15 15 14 14 14 13 13 12 11 9 8 nan
nan nan nan nan nan nan nan nan nan nan nan nan nan nan nan nan nan nan nan nan nan nan nan nan nan nan nan nan nan nan nan nan nan nan nan nan nan nan nan nan nan nan nan nan nan nan nan nan nan nan nan nan nan nan nan nan nan nan nan nan nan nan nan nan nan nan nan nan nan nan nan nan nan nan nan nan nan nan nan nan nan nan nan nan nan nan nan nan nan nan nan nan nan nan nan nan nan nan nan nan nan nan nan
CAPE
4 4 6 10 17 17 21 23 24 24 20 12 8 8 7 7 7 8 7 6 6 3 4 3 2 2 1 1 1 1 2 2 1 1 nan 2 2 6 9 15 15 25 32 33 24 24 12 nan nan nan nan nan nan nan nan nan nan nan nan nan nan nan nan 59 78 78 85 65 76 76 83 71 106 106 108 116 116 146 150 160 160 134 96 58 43 43 22 15 16 16 34 72 113 113 185 254 254 263 276 339 339 483 570
1 2 5 10 15 15 19 20 21 21 17 11 7 7 6 7 7 8 7 8 8 6 7 5 3 3 1 1 2 2 3 4 2 2 nan 3 3 9 16 22 22 29 35 30 16 16 5 nan nan nan nan nan nan nan nan nan nan nan nan nan nan nan nan 55 87 87 91 77 96 96 114 89 104 104 134 151 151 169 178 209 209 197 181 161 128 128 80 64 53 53 67 132 161 161 226 285 285 268 275 335 335 437 525
nan 1 4 9 13 13 16 18 19 19 18 14 11 11 10 7 7 8 9 10 10 10 9 8 6 6 3 2 2 2 4 6 4 4 0 6 6 15 21 25 25 34 34 24 12 12 2 nan nan nan nan nan nan nan nan nan nan nan nan nan nan nan nan 59 79 79 80 81 108 108 151 106 107 107 147 170 170 197 206 264 264 273 297 287 193 193 152 131 110 110 126 217 210 210 237 263 263 274 303 364 364 469 486
0 1 4 8 11 11 12 15 16 16 15 13 10 10 7 8 8 10 11 10 10 11 11 10 8 8 6 4 2 2 1 1 3 3 3 11 11 22 21 24 24 28 31 21 10 10 nan nan nan nan nan nan nan nan nan nan nan nan nan nan nan nan 7 58 71 71 70 80 111 111 135 126 128 128 141 174 174 245 236 322 322 302 263 204 187 187 178 199 218 218 214 280 244 244 220 244 244 271 306 398 398 439 520
3 2 5 8 11 11 13 14 13 13 13 11 8 8 8 11 11 15 14 12 12 13 14 14 14 14 11 9 6 6 4 3 5 5 10 15 15 24 23 22 22 25 28 18 9 9 nan nan nan nan nan nan nan nan nan nan nan nan nan nan nan nan 22 25 46 46 52 65 92 92 125 147 139 139 152 165 165 189 254 353 353 262 236 195 156 156 143 176 200 200 217 259 253 253 241 244 244 271 334 399 399 439 447
10 6 8 14 15 15 16 16 14 14 10 11 10 10 11 16 16 23 17 18 18 21 22 22 22 22 23 27 16 16 10 9 9 9 10 12 12 17 21 20 20 26 25 14 7 7 nan nan nan nan nan nan nan nan nan nan nan nan nan nan nan nan 16 6 17 17 32 45 72 72 106 148 137 137 139 122 122 152 211 232 232 219 228 224 179 179 127 129 158 158 191 233 241 241 278 286 286 296 362 375 375 412 390
16 21 25 27 27 27 28 22 17 17 14 16 18 18 20 24 24 29 28 28 28 27 36 41 48 48 59 42 22 22 13 8 6 6 9 8 8 11 18 21 21 21 20 12 3 3 nan nan nan nan nan nan nan nan nan nan nan nan nan nan nan 20 8 2 1 1 7 20 45 45 95 139 117 117 90 73 73 82 108 132 132 177 218 280 266 266 180 149 146 146 178 219 259 259 282 309 309 344 334 352 352 363 324
25 40 46 47 47 47 42 36 34 34 22 24 27 27 30 30 30 40 39 48 48 62 70 83 82 82 65 50 23 23 11 5 2 2 4 3 3 4 14 16 16 15 13 8 1 1 nan nan nan nan nan nan nan nan nan nan nan nan nan nan nan 6 5 0 nan nan nan 2 22 22 67 105 78 78 54 41 41 46 55 64 64 93 123 153 187 187 183 168 167 167 195 236 315 315 300 269 269 282 279 290 290 300 329
42 56 64 62 61 61 60 51 44 44 36 28 30 30 36 42 42 53 60 101 101 138 136 134 73 73 47 30 19 19 8 2 0 0 1 1 1 1 5 9 9 7 4 2 0 0 nan nan nan nan nan nan nan nan nan nan nan nan nan nan nan nan 2 nan nan nan nan nan 5 5 31 45 28 28 19 20 20 23 24 33 33 46 52 76 127 127 162 181 214 214 235 265 336 336 286 262 262 262 244 255 255 273 309
75 83 79 76 74 74 72 70 66 66 45 36 34 34 40 55 55 77 128 198 198 195 144 83 43 43 30 24 18 18 5 2 0 0 nan nan nan 0 1 2 2 1 nan nan nan nan nan nan nan nan nan nan nan nan nan nan nan nan nan nan nan nan nan nan nan nan nan 5 11 11 15 13 9 9 9 17 17 12 14 23 23 52 73 94 126 126 177 233 266 266 274 282 277 277 253 247 247 228 215 233 233 250 269
122 101 83 68 67 67 76 61 57 57 53 41 47 47 57 83 83 138 207 205 205 155 94 61 39 39 28 18 8 8 2 1 0 0 nan nan nan nan 0 0 0 nan nan nan nan nan nan nan nan nan nan nan nan nan nan nan nan nan nan nan nan nan nan nan nan nan 5 13 19 19 20 13 14 14 19 21 21 12 18 43 43 78 100 119 131 131 171 214 234 234 240 237 214 214 211 192 192 187 188 201 201 218 234
128 122 102 85 71 71 68 64 50 50 46 54 64 64 75 126 126 189 213 164 164 106 72 44 35 35 24 15 6 6 2 0 nan nan nan nan nan nan nan nan nan nan nan nan nan nan nan nan nan nan nan nan nan nan nan nan nan nan nan nan nan nan nan nan 0 0 11 26 34 34 28 21 18 18 19 21 21 21 22 59 59 93 116 111 121 121 140 154 149 149 159 145 137 137 132 125 125 132 149 163 163 178 191
134 129 108 77 64 64 73 69 54 54 52 62 73 73 101 174 174 270 195 134 134 81 65 39 32 32 21 13 5 5 0 nan nan nan nan nan nan nan nan nan nan nan nan nan nan nan nan nan nan nan nan nan nan nan nan nan nan nan nan nan nan nan nan nan 7 7 22 46 45 45 37 25 22 22 22 18 18 19 37 84 84 103 99 99 92 92 98 87 77 77 74 70 68 68 66 75 75 84 96 115 115 128 131
144 138 133 130 59 59 67 64 61 61 70 69 81 81 129 230 230 278 182 106 106 74 59 46 36 36 24 16 12 12 2 nan nan nan nan nan nan nan nan nan nan nan nan nan nan nan nan nan nan nan nan nan nan nan nan nan nan nan nan nan nan nan nan 0 15 15 35 45 48 48 40 33 27 27 24 19 19 24 52 83 83 96 93 82 76 76 66 56 45 45 41 35 33 33 26 30 30 36 56 66 66 85 87
136 64 51 67 65 65 52 60 80 80 78 90 89 89 178 265 265 263 173 118 118 69 41 43 45 45 35 24 9 9 1 nan nan nan nan nan nan nan nan nan nan nan nan nan nan nan nan nan nan nan nan nan nan nan nan nan nan nan nan nan nan nan nan 7 26 26 36 44 46 46 41 38 33 33 32 29 29 35 59 86 86 88 80 77 63 63 52 47 40 40 28 26 22 22 18 15 15 16 24 38 38 49 55
2 nan 8 86 83 83 58 66 75 75 85 98 150 150 232 303 303 252 187 113 113 66 41 56 44 44 34 29 4 4 nan nan nan nan nan nan nan nan nan nan nan nan nan nan nan nan nan nan nan nan nan nan nan nan nan nan nan nan nan nan nan nan nan 15 33 33 36 44 42 42 40 40 44 44 46 43 43 53 69 88 88 91 76 67 59 59 42 42 40 40 42 37 36 36 32 24 24 19 18 18 18 22 27
nan nan nan 82 78 78 54 61 81 81 92 124 201 201 317 343 343 268 202 126 126 62 40 33 34 34 23 3 nan nan nan nan nan nan nan nan nan nan nan nan nan nan nan nan nan nan nan nan nan nan nan nan nan nan nan nan nan nan nan nan nan nan nan 18 27 27 29 32 39 39 40 42 50 50 49 47 47 55 73 88 88 94 82 67 49 49 38 35 36 36 41 50 47 47 44 34 34 24 19 21 21 18 19
nan nan 31 58 64 64 51 68 89 89 116 152 282 282 385 385 385 307 216 138 138 73 38 24 20 20 6 nan nan nan nan nan nan nan nan nan nan nan nan nan nan nan nan nan nan nan nan nan nan nan nan nan nan nan nan nan nan nan nan nan nan nan 0 15 23 23 25 33 36 36 40 46 50 50 46 44 44 49 60 72 72 74 72 57 47 47 38 32 29 29 29 41 46 46 46 37 37 26 20 20 20 15 15
nan nan 13 38 51 51 57 87 127 127 182 248 373 373 427 401 401 323 250 168 168 99 34 14 5 5 nan nan nan nan nan nan nan nan nan nan nan nan nan nan nan nan nan nan nan nan nan nan nan nan nan nan nan nan nan nan nan nan nan nan nan nan 1 12 19 19 22 26 32 32 38 43 42 42 41 43 43 41 40 46 46 45 46 47 42 42 36 28 18 18 17 21 29 29 35 32 32 25 20 18 18 15 14
nan nan nan 17 29 29 59 101 161 161 268 452 272 272 374 376 376 279 349 173 173 46 5 nan nan nan nan nan nan nan nan nan nan nan nan nan nan nan nan nan nan nan nan nan nan nan nan nan nan nan nan nan nan nan nan nan nan nan nan nan nan nan 1 10 19 19 22 22 21 21 20 18 22 22 23 26 26 23 19 21 21 22 22 25 25 25 26 22 16 16 11 7 8 8 13 20 20 22 22 19 19 19 18
nan nan nan nan nan nan nan nan 1 1 45 407 nan nan nan nan nan 84 70 nan nan nan nan nan nan nan nan nan nan nan nan nan nan nan nan nan nan nan nan nan nan nan nan nan nan nan nan nan nan nan nan nan nan nan nan nan nan nan nan nan nan nan 0 8 18 18 19 18 15 15 13 13 13 13 15 16 16 11 9 10 10 13 12 12 13 13 20 19 13 13 8 4 4 4 5 12 12 17 17 16 16 14 16
nan nan nan nan nan nan nan nan nan nan nan 261 nan nan nan nan nan nan nan nan nan nan nan nan nan nan nan nan nan nan nan nan nan nan nan nan nan nan nan nan nan nan nan nan nan nan nan nan nan nan nan nan nan nan nan nan nan nan nan nan nan nan nan 5 16 16 15 12 10 10 8 7 7 7 8 6 6 6 3 2 2 3 3 4 3 3 8 11 8 8 4 1 0 0 1 4 4 8 12 11 11 11 12
nan nan nan nan nan nan nan nan nan nan nan nan nan nan nan nan nan nan nan nan nan nan nan nan nan nan nan nan nan nan nan nan nan nan nan nan nan nan nan nan nan nan nan nan nan nan nan nan nan nan nan nan nan nan nan nan nan nan nan nan nan nan nan 4 11 11 13 8 6 6 4 3 2 2 1 0 0 0 nan nan nan 0 0 0 nan nan 0 0 2 2 1 nan nan nan nan 0 0 2 6 7 7 6 7
nan nan nan nan nan nan nan nan nan nan nan nan nan nan nan nan nan nan nan nan nan nan nan nan nan nan nan nan nan nan nan nan nan nan nan nan nan nan nan nan nan nan nan nan nan nan nan nan nan nan nan nan nan nan nan nan nan nan nan nan nan nan nan 2 4 4 6 4 2 2 0 0 nan nan nan nan nan nan nan nan nan nan nan nan nan nan nan nan nan nan nan nan nan nan nan nan nan nan 0 2 2 3 3
nan nan nan nan nan nan nan nan nan nan nan nan nan nan nan nan nan nan nan nan nan nan nan nan nan nan nan nan nan nan nan nan nan nan nan nan nan nan nan nan nan nan nan nan nan nan nan nan nan nan nan nan nan nan nan nan nan nan nan nan nan nan nan nan 0 0 1 1 0 0 nan nan nan nan nan nan nan nan nan nan nan nan nan nan nan nan nan nan nan nan nan nan nan nan nan nan nan nan nan nan nan 0 1
nan nan nan nan nan nan nan nan nan nan nan nan nan nan nan nan nan nan nan nan nan nan nan nan nan nan nan nan nan nan nan nan nan nan nan nan nan nan nan nan nan nan nan nan nan nan nan nan nan nan nan nan nan nan nan nan nan nan nan nan nan nan nan nan nan nan nan nan nan nan nan nan nan nan nan nan nan nan nan nan nan nan nan nan nan nan nan nan nan nan nan nan nan nan nan nan nan nan nan nan nan nan nan
nan nan nan nan nan nan nan nan nan nan nan nan nan nan nan nan nan nan nan nan nan nan nan nan nan nan nan nan nan nan nan nan nan nan nan nan nan nan nan nan nan nan nan nan nan nan nan nan nan nan nan nan nan nan nan nan nan nan nan nan nan nan nan nan nan nan nan nan nan nan nan nan nan nan nan nan nan nan nan nan nan nan nan nan nan nan nan nan nan nan nan nan nan nan nan nan nan nan nan nan nan nan nan
nan nan nan nan nan nan nan nan nan nan nan nan nan nan nan nan nan nan nan nan nan nan nan nan nan nan nan nan nan nan nan nan nan nan nan nan nan nan nan nan nan nan nan nan nan nan nan nan nan nan nan nan nan nan nan nan nan nan nan nan nan nan nan nan nan nan nan nan nan nan nan nan nan nan nan nan nan nan nan nan nan nan nan nan nan nan nan nan nan nan nan nan nan nan nan nan nan nan nan nan nan nan nan
nan nan nan nan nan nan nan nan nan nan nan nan nan nan nan nan nan nan nan nan nan nan nan nan nan nan nan nan nan nan nan nan nan nan nan nan nan nan nan nan nan nan nan nan nan nan nan nan nan nan nan nan nan nan nan nan nan nan nan nan nan nan nan nan nan nan nan nan nan nan nan nan nan nan nan nan nan nan nan nan nan nan nan nan nan nan nan nan nan nan nan nan nan nan nan nan nan nan nan nan nan nan nan
nan nan nan nan nan nan nan nan nan nan nan nan nan nan nan nan nan nan nan nan nan nan nan nan nan nan nan nan nan nan nan nan nan nan nan nan nan nan nan nan nan nan nan nan nan nan nan nan nan nan nan nan nan nan nan nan nan nan nan nan nan nan nan nan nan nan nan nan nan nan nan nan nan nan nan nan nan nan nan nan nan nan nan nan nan nan nan nan nan nan nan nan nan nan nan nan nan nan nan nan nan nan nan
nan nan nan nan nan nan nan nan nan nan nan nan nan nan nan nan nan nan nan nan nan nan nan nan nan nan nan nan nan nan nan nan nan nan nan nan nan nan nan nan nan nan nan nan nan nan nan nan nan nan nan nan nan nan nan nan nan nan nan nan nan nan nan nan nan nan nan nan nan nan nan nan nan nan nan nan nan nan nan nan nan nan nan nan nan nan nan nan nan nan nan nan nan nan nan nan nan nan nan nan nan nan nan
nan nan nan nan nan nan nan nan nan nan nan nan nan nan nan nan nan nan nan nan nan nan nan nan nan nan nan nan nan nan nan nan nan nan nan nan nan nan nan nan nan nan nan nan nan nan nan nan nan nan nan nan nan nan nan nan nan nan nan nan nan nan nan nan nan nan nan nan nan nan nan nan nan nan nan nan nan nan nan nan nan nan nan nan nan nan nan nan nan nan nan nan nan nan nan nan nan nan nan nan nan nan nan
nan nan nan nan nan nan nan nan nan nan nan nan nan nan nan nan nan nan nan nan nan nan nan nan nan nan nan nan nan nan nan nan nan nan nan nan nan nan nan nan nan nan nan nan nan nan nan nan nan nan nan nan nan nan nan nan nan nan nan nan nan nan nan nan nan nan nan nan nan nan nan nan nan nan nan nan nan nan nan nan nan nan nan nan nan nan nan nan nan nan nan nan nan nan nan nan nan nan nan nan nan nan nan
nan nan nan nan nan nan nan nan nan nan nan nan nan nan nan nan nan nan nan nan nan nan nan nan nan nan nan nan nan nan nan nan nan nan nan nan nan nan nan nan nan nan nan nan nan nan nan nan nan nan nan nan nan nan nan nan nan nan nan nan nan nan nan nan nan nan nan nan nan nan nan nan nan nan nan nan nan nan nan nan nan nan nan nan nan nan nan nan nan nan nan nan nan nan nan nan nan nan nan nan nan nan nan
nan nan nan nan nan nan nan nan nan nan nan nan nan nan nan nan nan nan nan nan nan nan nan nan nan nan nan nan nan nan nan nan nan nan nan nan nan nan nan nan nan nan nan nan nan nan nan nan nan nan nan nan nan nan nan nan nan nan nan nan nan nan nan nan nan nan nan nan nan nan nan nan nan nan nan nan nan nan nan nan nan nan nan nan nan nan nan nan nan nan nan nan nan nan nan nan nan nan nan nan nan nan nan
nan nan nan nan nan nan nan nan nan nan nan nan nan nan nan nan nan nan nan nan nan nan nan nan nan nan nan nan nan nan nan nan nan nan nan nan nan nan nan nan nan nan nan nan nan nan nan nan nan nan nan nan nan nan nan nan nan nan nan nan nan nan nan nan nan nan nan nan nan nan nan nan nan nan nan nan nan nan nan nan nan nan nan nan nan nan nan nan nan nan nan nan nan nan nan nan nan nan nan nan nan nan nan
nan nan nan nan nan nan nan nan nan nan nan nan nan nan nan nan nan nan nan nan nan nan nan nan nan nan nan nan nan nan nan nan nan nan nan nan nan nan nan nan nan nan nan nan nan nan nan nan nan nan nan nan nan nan nan nan nan nan nan nan nan nan nan nan nan nan nan nan nan nan nan nan nan nan nan nan nan nan nan nan nan nan nan nan nan nan nan nan nan nan nan nan nan nan nan nan nan nan nan nan nan nan nan
nan nan nan nan nan nan nan nan nan nan nan nan nan nan nan nan nan nan nan nan nan nan nan nan nan nan nan nan nan nan nan nan nan nan nan nan nan nan nan nan nan nan nan nan nan nan nan nan nan nan nan nan nan nan nan nan nan nan nan nan nan nan nan nan nan nan nan nan nan nan nan nan nan nan nan nan nan nan nan nan nan nan nan nan nan nan nan nan nan nan nan nan nan nan nan nan nan nan nan nan nan nan nan
nan nan nan nan nan nan nan nan nan nan nan nan nan nan nan nan nan nan nan nan nan nan nan nan nan nan nan nan nan nan nan nan nan nan nan nan nan nan nan nan nan nan nan nan nan nan nan nan nan nan nan nan nan nan nan nan nan nan nan nan nan nan nan nan nan nan nan nan nan nan nan nan nan nan nan nan nan nan nan nan nan nan nan nan nan nan nan nan nan nan nan nan nan nan nan nan nan nan nan nan nan nan nan
nan nan nan nan nan nan nan nan nan nan nan nan nan nan nan nan nan nan nan nan nan nan nan nan nan nan nan nan nan nan nan nan nan nan nan nan nan nan nan nan nan nan nan nan nan nan nan nan nan nan nan nan nan nan nan nan nan nan nan nan nan nan nan nan nan nan nan nan nan nan nan nan nan nan nan nan nan nan nan nan nan nan nan nan nan nan nan nan nan nan nan nan nan nan nan 0 0 0 nan nan nan nan nan
nan nan nan nan nan nan nan nan nan nan nan nan nan nan nan nan nan nan nan nan nan nan nan nan nan nan nan nan nan nan nan nan nan nan nan nan nan nan nan nan nan nan nan nan nan nan nan nan nan nan nan nan nan nan nan nan nan nan nan nan nan nan nan nan nan nan nan nan nan nan nan nan nan nan nan nan nan nan nan nan nan nan nan nan nan nan nan nan nan nan nan nan nan nan nan 0 0 0 nan nan nan nan nan
nan nan nan nan nan nan nan nan nan nan nan nan nan nan nan nan nan nan nan nan nan nan nan nan nan nan nan nan nan nan nan nan nan nan nan nan nan nan nan nan nan nan nan nan nan nan nan nan nan nan nan nan nan nan nan nan nan nan nan nan nan nan nan nan nan nan nan nan nan nan nan nan nan nan nan nan nan nan nan nan nan nan nan nan nan nan nan nan nan nan nan nan nan nan nan 0 0 1 0 nan nan nan 0
nan nan nan nan nan nan nan nan nan nan nan nan nan nan nan nan nan nan nan nan nan nan nan nan nan nan nan nan nan nan nan nan nan nan nan nan nan nan nan nan nan nan nan nan nan nan nan nan nan nan nan nan nan nan nan nan nan nan nan nan nan nan nan nan nan nan nan nan nan nan nan nan nan nan nan nan nan nan nan nan nan nan nan nan nan nan nan nan nan nan nan nan nan nan nan nan nan 0 0 0 0 0 1
nan nan nan nan nan nan nan nan nan nan nan nan nan nan nan nan nan nan nan nan nan nan nan nan nan nan nan nan nan nan nan nan nan nan nan nan nan nan nan nan nan nan nan nan nan nan nan nan nan nan nan nan nan nan nan nan nan nan nan nan nan nan nan nan nan nan nan nan nan nan nan nan nan nan nan nan nan nan nan nan nan nan nan nan nan nan nan nan nan nan nan nan nan nan nan nan nan nan nan nan nan 0 0
nan nan nan nan nan nan nan nan nan nan nan nan nan nan nan nan nan nan nan nan nan nan nan nan nan nan nan nan nan nan nan nan nan nan nan nan nan nan nan nan nan nan nan nan nan nan nan nan nan nan nan nan nan nan nan nan nan nan nan nan nan nan nan nan nan nan nan nan nan nan nan nan nan nan nan nan nan nan nan nan nan nan nan nan nan nan nan nan nan nan nan nan nan nan nan nan nan nan nan nan nan nan 0
nan nan nan nan nan nan nan nan nan nan nan nan nan nan nan nan nan nan nan nan nan nan nan nan nan nan nan nan nan nan nan nan nan nan nan nan nan nan nan nan nan nan nan nan nan nan nan nan nan nan nan nan nan nan nan nan nan nan nan nan nan nan nan nan nan nan nan nan nan nan nan nan nan nan nan nan nan nan nan nan nan nan nan nan nan nan nan nan nan nan nan nan nan nan nan nan nan nan nan nan nan nan nan
nan nan nan nan nan nan nan nan nan nan nan nan nan nan nan nan nan nan nan nan nan nan nan nan nan nan nan nan nan nan nan nan nan nan nan nan nan nan nan nan nan nan nan nan nan nan nan nan nan nan nan nan nan nan nan nan nan nan nan nan nan nan nan nan nan nan nan nan nan nan nan nan nan nan nan nan nan nan nan nan nan nan nan nan nan nan nan nan nan nan nan nan nan nan nan nan nan nan nan nan nan nan nan
nan nan nan nan nan nan nan nan nan nan nan nan nan nan nan nan nan nan nan nan nan nan nan nan nan nan nan nan nan nan nan nan nan nan nan nan nan nan nan nan nan nan nan nan nan nan nan nan nan nan nan nan nan nan nan nan nan nan nan nan nan nan nan nan nan nan nan nan nan nan nan nan nan nan nan nan nan nan nan nan nan nan nan nan nan nan nan nan nan nan nan nan nan nan nan nan nan nan nan nan nan nan nan
nan nan nan nan nan nan nan nan nan nan nan nan nan nan nan nan nan nan nan nan nan nan nan nan nan nan nan nan nan nan nan nan nan nan nan nan nan nan nan nan nan nan nan nan nan nan nan nan nan nan nan nan nan nan nan nan nan nan nan nan nan nan nan nan nan nan nan nan nan nan nan nan nan nan nan nan nan nan nan nan nan nan nan nan nan nan nan nan nan nan nan nan nan nan nan nan nan nan nan nan nan nan nan
nan nan nan nan nan nan nan nan nan nan nan nan nan nan nan nan nan nan nan nan nan nan nan nan nan nan nan nan nan nan nan nan nan nan nan nan nan nan nan nan nan nan nan nan nan nan nan nan nan nan nan nan nan nan nan nan nan nan nan nan nan nan nan nan nan nan nan nan nan nan nan nan nan nan nan nan nan nan nan nan nan nan nan nan nan nan nan nan nan nan nan nan nan nan nan nan nan nan nan nan nan nan nan
nan nan nan nan nan nan nan nan nan nan nan nan nan nan nan nan nan nan nan nan nan nan nan nan nan nan nan nan nan nan nan nan nan nan nan nan nan nan nan nan nan nan nan nan nan nan nan nan nan nan nan nan nan nan nan nan nan nan nan nan nan nan nan nan nan nan nan nan nan nan nan nan nan nan nan nan nan nan nan nan nan nan nan nan nan nan nan nan nan nan nan nan nan nan nan nan nan nan nan nan nan nan nan
nan nan nan nan nan nan nan nan nan nan nan nan nan nan nan nan nan nan nan nan nan nan nan nan nan nan nan nan nan nan nan nan nan nan nan nan nan nan nan nan nan nan nan nan nan nan nan nan nan nan nan nan nan nan nan nan nan nan nan nan nan nan nan nan nan nan nan nan nan nan nan nan nan nan nan nan nan nan nan nan nan nan nan nan nan nan nan nan nan nan nan nan nan nan nan nan nan nan nan nan nan nan nan
nan nan nan nan nan nan nan nan nan nan nan nan nan nan nan nan nan nan nan nan nan nan nan nan nan nan nan nan nan nan nan nan nan nan nan nan nan nan nan nan nan nan nan nan nan nan nan nan nan nan nan nan nan nan nan nan nan nan nan nan nan nan nan nan nan nan nan nan nan nan nan nan nan nan nan nan nan nan nan nan nan nan nan nan nan nan nan nan nan nan nan nan nan nan nan nan nan nan nan nan nan nan nan
nan nan nan nan nan nan nan nan nan nan nan nan nan nan nan nan nan nan nan nan nan nan nan nan nan nan nan nan nan nan nan nan nan nan nan nan nan nan nan nan nan nan nan nan nan nan nan nan nan nan nan nan nan nan nan nan nan nan nan nan nan nan nan nan nan nan nan nan nan nan nan nan nan nan nan nan nan nan nan nan nan nan nan nan nan nan nan nan nan nan nan nan nan nan nan nan nan nan nan nan nan nan nan
nan nan nan nan nan nan nan nan nan nan nan nan nan nan nan nan nan nan nan nan nan nan nan nan nan nan nan nan nan nan nan nan nan nan nan nan nan nan nan nan nan nan nan nan nan nan nan nan nan nan nan nan nan nan nan nan nan nan nan nan nan nan nan nan nan nan nan nan nan nan nan nan nan nan nan nan nan nan nan nan nan nan nan nan nan nan nan nan nan nan nan nan nan nan nan nan nan nan nan nan nan nan nan
nan nan nan nan nan nan nan nan nan nan nan nan nan nan nan nan nan nan nan nan nan nan nan nan nan nan nan nan nan nan nan nan nan nan nan nan nan nan nan nan nan nan nan nan nan nan nan nan nan nan nan nan nan nan nan nan nan nan nan nan nan nan nan nan nan nan nan nan nan nan nan nan nan nan nan nan nan nan nan nan nan nan nan nan nan nan nan nan nan nan nan nan nan nan nan nan nan nan nan nan nan nan nan
nan nan nan nan nan nan nan nan nan nan nan nan nan nan nan nan nan nan nan nan nan nan nan nan nan nan nan nan nan nan nan nan nan nan nan nan nan nan nan nan nan nan nan nan nan nan nan nan nan nan nan nan nan nan nan nan nan nan nan nan nan nan nan nan nan nan nan nan nan nan nan nan nan nan nan nan nan nan nan nan nan nan nan nan nan nan nan nan nan nan nan nan nan nan nan nan nan nan nan nan nan nan nan
nan nan nan nan nan nan nan nan nan nan nan nan nan nan nan nan nan nan nan nan nan nan nan nan nan nan nan nan nan nan nan nan nan nan nan nan nan nan nan nan nan nan nan nan nan nan nan nan nan nan nan nan nan nan nan nan nan nan nan nan nan nan nan nan nan nan nan nan nan nan nan nan nan nan nan nan nan nan nan nan nan nan nan nan nan nan nan nan nan nan nan nan nan nan nan nan nan nan nan nan nan nan nan
nan nan nan nan nan nan nan nan nan nan nan nan nan nan nan nan nan nan nan nan nan nan nan nan nan nan nan nan nan nan nan nan nan nan nan nan nan nan nan nan nan nan nan nan nan nan nan nan nan nan nan nan nan nan nan nan nan nan nan nan nan nan nan nan nan nan nan nan nan nan nan nan nan nan nan nan nan nan nan nan nan nan nan nan nan nan nan nan nan nan nan nan nan nan nan nan nan nan nan nan nan nan nan
nan nan nan nan nan nan nan nan nan nan nan nan nan nan nan nan nan nan nan nan nan nan nan nan nan nan nan nan nan nan nan nan nan nan nan nan nan nan nan nan nan nan nan nan nan nan nan nan nan nan nan nan nan nan nan nan nan nan nan nan nan nan nan nan nan nan nan nan nan nan nan nan nan nan nan nan nan nan nan nan nan nan nan nan nan nan nan nan nan nan nan nan nan nan nan nan nan nan nan nan nan nan nan
nan nan nan nan nan nan nan nan nan nan nan nan nan nan nan nan nan nan nan nan nan nan nan nan nan nan nan nan nan nan nan nan nan nan nan nan nan nan nan nan nan nan nan nan nan nan nan nan nan nan nan nan nan nan nan nan nan nan nan nan nan nan nan nan nan nan nan nan nan nan nan nan nan nan nan nan nan nan nan nan nan nan nan nan nan nan nan nan nan nan nan nan nan nan nan nan nan nan nan nan nan nan 0